Kayseri, Turkey

5:32 PM +03 on April 19, 2018 (GMT +0300)
Erkilet Air Base

Weather History for LTAU - November, 2012

Change the Weather History Date:

Sunday, November 25, 2012

  Actual Average Record
Temperature  
Mean Temperature 42 °F -  
Max Temperature 45 °F 42 °F 64 °F (1996)
Min Temperature 39 °F 23 °F 10 °F (2016)
Degree Days  
Heating Degree Days 23    
Moisture  
Dew Point 39 °F    
Average Humidity 91    
Maximum Humidity 100    
Minimum Humidity 81    
Precipitation  
Precipitation 0.16 in - - ()
Sea Level Pressure  
Sea Level Pressure 30.11 in    
Wind  
Wind Speed 4 mph ()    
Max Wind Speed 7 mph    
Max Gust Speed -    
Visibility 4.7 miles    
Events Rain    
Averages and records for this station are not official NWS values.
T = Trace of Precipitation, MM = Missing Value Source: Averaged Metar Reports

Daily Weather History Graph

Daily Weather History Graph

Search for Another Location

Airport or City:

Astronomy

Nov. 25, 2012 Rise Set
Actual Time 6:31 AM EET 4:18 PM EET
Civil Twilight 6:02 AM EET 4:47 PM EET
Nautical Twilight 5:29 AM EET 5:20 PM EET
Astronomical Twilight 4:58 AM EET 5:52 PM EET
Moon 2:23 PM EET (11/25) 3:27 AM EET (11/25)
Length of Visible Light 10h 45m
Length of Day
9h 46m
Waxing Gibbous, 91% of the Moon is Illuminated
Nov 25
Waxing Gibbous
Nov 28
Full
Dec 6
Last Quarter
Dec 13
New
Dec 20
First Quarter

Hourly Weather History & Observations

Time (EET) Temp. Windchill Dew Point Humidity Pressure Visibility Wind Dir Wind Speed Gust Speed Precip Events Conditions
12:20 AM 41.0 °F 38.0 °F 39.2 °F 93% 30.09 in 4.3 mi WSW 4.6 mph - N/A   Mostly Cloudy
12:50 AM 41.0 °F 38.0 °F 39.2 °F 93% 30.09 in 4.3 mi WSW 4.6 mph - N/A   Mostly Cloudy
1:20 AM 41.0 °F 37.1 °F 39.2 °F 93% 30.09 in 5.0 mi WSW 5.8 mph - N/A   Mostly Cloudy
1:50 AM 41.0 °F 36.4 °F 39.2 °F 93% 30.09 in 5.0 mi WSW 6.9 mph - N/A   Mostly Cloudy
2:00 AM 41 °F - 39 °F 89%  in 5 mi WSW 6.9 mph - -   Mist
2:20 AM 41.0 °F 38.0 °F 39.2 °F 93% 30.09 in 5.0 mi WSW 4.6 mph - N/A   Mostly Cloudy
2:50 AM 41.0 °F 37.1 °F 39.2 °F 93% 30.09 in 5.6 mi WSW 5.8 mph - N/A   Mostly Cloudy
3:20 AM 41.0 °F 38.0 °F 39.2 °F 93% 30.09 in 5.6 mi WSW 4.6 mph - N/A   Mostly Cloudy
3:50 AM 41.0 °F 37.1 °F 39.2 °F 93% 30.09 in 5.6 mi WSW 5.8 mph - N/A   Mostly Cloudy
4:20 AM 41.0 °F 36.4 °F 39.2 °F 93% 30.09 in 5.6 mi West 6.9 mph - N/A   Mostly Cloudy
4:50 AM 41.0 °F 37.1 °F 39.2 °F 93% 30.09 in 5.0 mi WSW 5.8 mph - N/A   Mostly Cloudy
5:20 AM 41.0 °F 36.4 °F 39.2 °F 93% 30.09 in 6.2 mi WSW 6.9 mph - N/A   Mostly Cloudy
5:50 AM 41.0 °F 36.4 °F 39.2 °F 93% 30.09 in 6.2 mi WSW 6.9 mph - N/A   Mostly Cloudy
6:20 AM 41.0 °F 36.4 °F 39.2 °F 93% 30.12 in 6.2 mi WSW 6.9 mph - N/A   Mostly Cloudy
6:50 AM 41.0 °F 37.1 °F 39.2 °F 93% 30.12 in 6.2 mi WSW 5.8 mph - N/A   Mostly Cloudy
7:20 AM 41.0 °F 37.1 °F 39.2 °F 93% 30.12 in 6.2 mi WSW 5.8 mph - N/A   Mostly Cloudy
7:50 AM 41.0 °F 37.1 °F 39.2 °F 93% 30.12 in 5.6 mi SW 5.8 mph - N/A   Mostly Cloudy
8:00 AM 41 °F - 38 °F 87%  in 6 mi SW 5.8 mph - -   Mist
8:20 AM 41.0 °F 38.0 °F 39.2 °F 93% 30.12 in 6.2 mi SW 4.6 mph - N/A   Mostly Cloudy
8:50 AM 42.8 °F 39.3 °F 39.2 °F 87% 30.12 in 5.0 mi WSW 5.8 mph - N/A   Overcast
9:20 AM 42.8 °F 41.1 °F 39.2 °F 87% 30.12 in 5.0 mi SW 3.5 mph - N/A   Overcast
9:50 AM 42.8 °F - 39.2 °F 87% 30.12 in 3.7 mi Calm Calm - N/A Rain Light Rain
10:20 AM 42.8 °F - 39.2 °F 87% 30.12 in 2.8 mi Calm Calm - N/A Rain Light Rain
10:50 AM 42.8 °F - 39.2 °F 87% 30.12 in - Calm Calm - N/A Rain Light Rain
11:20 AM 42.8 °F - 41.0 °F 93% 30.12 in 3.1 mi Variable 2.3 mph - N/A Rain Light Rain
11:50 AM 44.6 °F - 39.2 °F 81% 30.12 in 5.0 mi Calm Calm - N/A   Mostly Cloudy
12:20 PM 44.6 °F 43.1 °F 39.2 °F 81% 30.09 in 5.6 mi South 3.5 mph - N/A   Mostly Cloudy
12:50 PM 44.6 °F 43.1 °F 39.2 °F 81% 30.09 in 5.6 mi SW 3.5 mph - N/A Rain Light Rain
1:20 PM 44.6 °F - 39.2 °F 81% 30.09 in 3.7 mi Variable 2.3 mph - N/A Rain Light Rain
1:50 PM 42.8 °F 41.1 °F 39.2 °F 87% 30.09 in - SW 3.5 mph - N/A Rain Light Rain
2:00 PM 43 °F - 39 °F 82%  in 3 mi SW 3.5 mph - - Rain Light Rain
2:20 PM 42.8 °F 40.1 °F 41.0 °F 93% 30.09 in 5.0 mi SW 4.6 mph - N/A Rain Light Rain
2:50 PM 42.8 °F 40.1 °F 41.0 °F 93% 30.09 in 3.7 mi WSW 4.6 mph - N/A Rain Light Rain
3:20 PM 42.8 °F 41.1 °F 41.0 °F 93% 30.09 in 4.3 mi WSW 3.5 mph - N/A Rain Light Rain
3:50 PM 42.8 °F - 41.0 °F 93% 30.09 in 5.0 mi SSW 2.3 mph - N/A   Overcast
4:20 PM 42.8 °F - 39.2 °F 87% 30.09 in 3.7 mi Calm Calm - N/A Rain Light Rain
4:50 PM 42.8 °F - 39.2 °F 87% 30.09 in 2.2 mi Calm Calm - N/A Rain Light Rain
5:20 PM 42.8 °F - 39.2 °F 87% 30.12 in 4.3 mi Variable 1.2 mph - N/A Rain Light Rain
5:50 PM 41.0 °F - 39.2 °F 93% 30.12 in 5.6 mi North 2.3 mph - N/A Rain Light Rain
6:20 PM 41.0 °F - 39.2 °F 93% 30.12 in 5.6 mi WNW 1.2 mph - N/A Rain Light Rain
6:50 PM 41.0 °F - 39.2 °F 93% 30.12 in 5.0 mi Calm Calm - N/A Rain Light Rain
7:20 PM 41.0 °F - 39.2 °F 93% 30.12 in 5.6 mi Calm Calm - N/A   Mostly Cloudy
7:50 PM 41.0 °F - 39.2 °F 93% 30.12 in 5.0 mi Calm Calm - N/A   Mostly Cloudy
8:00 PM 41 °F - 39 °F 89%  in 4 mi Calm Calm - - Rain Light Rain
8:20 PM 41.0 °F - 39.2 °F 93% 30.12 in 4.3 mi Calm Calm - N/A   Mostly Cloudy
8:50 PM 41.0 °F - 39.2 °F 93% 30.12 in 3.7 mi Calm Calm - N/A   Mostly Cloudy
9:20 PM 39.2 °F - 39.2 °F 100% 30.12 in 2.5 mi West 1.2 mph - N/A   Mostly Cloudy
9:50 PM 39.2 °F - 37.4 °F 93% 30.12 in 3.7 mi Calm Calm - N/A   Mostly Cloudy
10:20 PM 39.2 °F - 37.4 °F 93% 30.12 in 3.7 mi Calm Calm - N/A   Mostly Cloudy
10:50 PM 39.2 °F - 39.2 °F 100% 30.12 in 3.7 mi Calm Calm - N/A   Mostly Cloudy
11:20 PM 39.2 °F - 37.4 °F 93% 30.12 in 3.7 mi Calm Calm - N/A   Mostly Cloudy
11:50 PM 39.2 °F - 37.4 °F 93% 30.12 in 1.9 mi Calm Calm - N/A   Mostly Cloudy